Back to catalog

DELTA 1 DEB

AliveSSO
NORAD 10709·DEBRIS·🇺🇸 United States

Launched Jul 29, 1976 from Vandenberg Space Force Base

Loading…

Next Passes (next 24 hours)

TLE

FreshSource: Space-Track

Epoch: Sep 14, 2026, 10:55 UTC

1 10709U 76077AE  26257.45541630 -.00000166  00000-0 -83563-3 0  9997
2 10709 101.9143 324.8179 0019758 349.7466  21.1756 12.46478460277157

Track DELTA 1 DEB in real time with AllMySat

Download on the App Store